Location: Chenereilles
(45.4866°N, 4.0790°E)
Time: 18:44:11
(UTC+00:00)

Cosmos 1891 Rocket - Pass Details

Date: 12 November 2019
Orbit: 933 x 1019 km, 82.9° (Epoch: 14 December)

Event Time Altitude Azimuth Distance (km) Brightness Sun altitude
Rises 18:09:00 0° 351° (N) 3,754 7.6 -19.7°
Reaches altitude 10° 18:11:34 10° 352° (N) 2,791 6.9 -20.1°
Maximum altitude 18:18:00 89° 81° (E) 998 4.5 -21.3°
Drops below altitude 10° 18:24:16 10° 173° (S) 2,716 6.8 -22.3°
Sets 18:26:43 0° 174° (S) 3,646 7.5 -22.8°
